,,,PA_Meas_PMT16A,,PR_Meas_QMR101_102,,RH_Meas_QMH101,,SR_Meas_QMS101,,TA_Meas_QMH101,,GenWind,,GenWind,
date,time,status,PA,status,PR,status,RH,status,SR,status,TA,status,DirAvg,status,SpdAvg,
2014-02-09, 00:00:04,VALID,1007.1,VALID,0,VALID,100.988,VALID,0,VALID,24.9998,VALID,313,VALID,0,
2014-02-09, 00:01:04,VALID,1007.08,VALID,0,VALID,101.049,VALID,0,VALID,24.9589,VALID,313,VALID,0,
2014-02-09, 00:02:04,VALID,1007.04,VALID,0,VALID,100.843,VALID,0,VALID,24.9803,VALID,313,VALID,0,
2014-02-09, 00:03:04,VALID,1007.01,VALID,0,VALID,100.828,VALID,0,VALID,24.9608,VALID,311,VALID,0,
2014-02-09, 00:04:04,VALID,1007.01,VALID,0,VALID,101.407,VALID,0.112112,VALID,24.9394,VALID,312,VALID,0,
2014-02-09, 00:05:04,VALID,1006.98,VALID,0,VALID,102.551,VALID,0,VALID,24.9394,VALID,313,VALID,0,
2014-02-09, 00:06:04,VALID,1006.96,VALID,0,VALID,103.176,VALID,0,VALID,24.9608,VALID,313,VALID,0,
2014-02-09, 00:07:04,VALID,1006.93,VALID,0,VALID,102.932,VALID,0,VALID,24.9394,VALID,313,VALID,0,
2014-02-09, 00:08:04,VALID,1006.96,VALID,0,VALID,102.177,VALID,0.112112,VALID,24.8828,VALID,313,VALID,0,
2014-02-09, 00:09:04,VALID,1006.97,VALID,0,VALID,102.33,VALID,0,VALID,24.8633,VALID,313,VALID,0,
2014-02-09, 00:10:04,VALID,1006.92,VALID,0,VALID,103.077,VALID,0,VALID,24.9023,VALID,312,VALID,0,
2014-02-09, 00:11:04,VALID,1006.92,VALID,0,VALID,103.619,VALID,0,VALID,24.8225,VALID,313,VALID,0,
2014-02-09, 00:12:04,VALID,1006.95,VALID,0,VALID,103.954,VALID,0,VALID,24.803,VALID,313,VALID,0,
2014-02-09, 00:13:04,VALID,1006.92,VALID,0,VALID,104,VALID,0,VALID,24.764,VALID,312,VALID,0,
2014-02-09, 00:14:04,VALID,1006.91,VALID,0,VALID,104,VALID,0,VALID,24.7445,VALID,313,VALID,0,
2014-02-09, 00:15:04,VALID,1006.92,VALID,0,VALID,104,VALID,0,VALID,24.7659,VALID,313,VALID,0,
2014-02-09, 00:16:04,VALID,1006.9,VALID,0,VALID,104,VALID,0,VALID,24.7659,VALID,313,VALID,0,
2014-02-09, 00:17:04,VALID,1006.87,VALID,0,VALID,104,VALID,0,VALID,24.725,VALID,313,VALID,0,
2014-02-09, 00:18:04,VALID,1006.86,VALID,0,VALID,104,VALID,0,VALID,24.7269,VALID,313,VALID,0,
2014-02-09, 00:19:04,VALID,1006.83,VALID,0,VALID,104,VALID,0,VALID,24.7055,VALID,312,VALID,0,
2014-02-09, 00:20:04,VALID,1006.81,VALID,0,VALID,104,VALID,0,VALID,24.7074,VALID,313,VALID,0,
2014-02-09, 00:21:04,VALID,1006.79,VALID,0,VALID,104,VALID,0,VALID,24.686,VALID,312,VALID,0,
2014-02-09, 00:22:04,VALID,1006.81,VALID,0,VALID,104,VALID,0,VALID,24.7055,VALID,313,VALID,0,
2014-02-09, 00:23:04,VALID,1006.81,VALID,0,VALID,104,VALID,0,VALID,24.686,VALID,312,VALID,0,
2014-02-09, 00:24:04,VALID,1006.77,VALID,0,VALID,104,VALID,0,VALID,24.6879,VALID,313,VALID,0,
2014-02-09, 00:25:04,VALID,1006.76,VALID,0,VALID,104,VALID,0,VALID,24.6666,VALID,313,VALID,0,
2014-02-09, 00:26:04,VALID,1006.77,VALID,0,VALID,104,VALID,0,VALID,24.7074,VALID,312,VALID,0,
2014-02-09, 00:27:04,VALID,1006.75,VALID,0,VALID,104,VALID,0,VALID,24.686,VALID,312,VALID,0,
2014-02-09, 00:28:04,VALID,1006.75,VALID,0,VALID,104,VALID,0,VALID,24.6471,VALID,312,VALID,0,
2014-02-09, 00:29:04,VALID,1006.74,VALID,0,VALID,104,VALID,0,VALID,24.6471,VALID,312,VALID,0,
2014-02-09, 00:30:04,VALID,1006.73,VALID,0,VALID,104,VALID,0.112112,VALID,24.6471,VALID,312,VALID,0,
2014-02-09, 00:31:04,VALID,1006.73,VALID,0,VALID,104,VALID,0,VALID,24.6276,VALID,313,VALID,0,
2014-02-09, 00:32:04,VALID,1006.71,VALID,0,VALID,104,VALID,0,VALID,24.6294,VALID,313,VALID,0,
2014-02-09, 00:33:04,VALID,1006.68,VALID,0,VALID,104,VALID,0,VALID,24.6081,VALID,313,VALID,0,
2014-02-09, 00:34:04,VALID,1006.68,VALID,0,VALID,104,VALID,0,VALID,24.6684,VALID,312,VALID,0,
2014-02-09, 00:35:04,VALID,1006.65,VALID,0,VALID,104,VALID,0,VALID,24.5905,VALID,313,VALID,0,
2014-02-09, 00:36:04,VALID,1006.62,VALID,0,VALID,104,VALID,0,VALID,24.5886,VALID,313,VALID,0,
2014-02-09, 00:37:04,VALID,1006.62,VALID,0,VALID,104,VALID,0,VALID,24.6099,VALID,313,VALID,0,
2014-02-09, 00:38:04,VALID,1006.6,VALID,0,VALID,104,VALID,0,VALID,24.6099,VALID,312,VALID,0,
2014-02-09, 00:39:04,VALID,1006.56,VALID,0,VALID,104,VALID,0,VALID,24.5886,VALID,312,VALID,0,
2014-02-09, 00:40:04,VALID,1006.58,VALID,0,VALID,104,VALID,0,VALID,24.6489,VALID,312,VALID,0.304688,
2014-02-09, 00:41:04,VALID,1006.56,VALID,0,VALID,104,VALID,0,VALID,24.6489,VALID,312,VALID,0.321875,
2014-02-09, 00:42:04,VALID,1006.55,VALID,0,VALID,104,VALID,0,VALID,24.6489,VALID,312,VALID,0,
2014-02-09, 00:43:04,VALID,1006.55,VALID,0,VALID,104,VALID,0,VALID,24.6276,VALID,312,VALID,0,
2014-02-09, 00:44:04,VALID,1006.52,VALID,0,VALID,104,VALID,0,VALID,24.6879,VALID,312,VALID,0,
2014-02-09, 00:45:04,VALID,1006.54,VALID,0,VALID,104,VALID,0,VALID,24.6489,VALID,312,VALID,0,
2014-02-09, 00:46:04,VALID,1006.55,VALID,0,VALID,104,VALID,0,VALID,24.6489,VALID,313,VALID,0,
2014-02-09, 00:47:04,VALID,1006.54,VALID,0,VALID,104,VALID,0,VALID,24.6081,VALID,312,VALID,0,
2014-02-09, 00:48:04,VALID,1006.57,VALID,0,VALID,104,VALID,0,VALID,24.6294,VALID,313,VALID,0,
2014-02-09, 00:49:04,VALID,1006.55,VALID,0,VALID,104,VALID,0,VALID,24.6099,VALID,312,VALID,0,
2014-02-09, 00:50:04,VALID,1006.54,VALID,0,VALID,104,VALID,0,VALID,24.5905,VALID,313,VALID,0,
2014-02-09, 00:51:04,VALID,1006.55,VALID,0,VALID,104,VALID,0,VALID,24.5886,VALID,313,VALID,0,
2014-02-09, 00:52:04,VALID,1006.53,VALID,0,VALID,104,VALID,0,VALID,24.5496,VALID,313,VALID,0,
2014-02-09, 00:53:04,VALID,1006.55,VALID,0,VALID,104,VALID,0,VALID,24.571,VALID,313,VALID,0,
2014-02-09, 00:54:04,VALID,1006.55,VALID,0,VALID,104,VALID,0,VALID,24.5515,VALID,330,VALID,0,
2014-02-09, 00:55:04,VALID,1006.53,VALID,0,VALID,104,VALID,0,VALID,24.5301,VALID,7,VALID,0,
2014-02-09, 00:56:04,VALID,1006.5,VALID,0,VALID,104,VALID,0,VALID,24.5106,VALID,55,VALID,0,
2014-02-09, 00:57:04,VALID,1006.49,VALID,0,VALID,104,VALID,0,VALID,24.532,VALID,55,VALID,0,
2014-02-09, 00:58:04,VALID,1006.5,VALID,0,VALID,104,VALID,0,VALID,24.5106,VALID,55,VALID,0,
2014-02-09, 00:59:04,VALID,1006.45,VALID,0,VALID,104,VALID,0,VALID,24.5106,VALID,55,VALID,0,
2014-02-09, 01:00:04,VALID,1006.46,VALID,0,VALID,104,VALID,0,VALID,24.5125,VALID,55,VALID,0,
2014-02-09, 01:01:04,VALID,1006.45,VALID,0,VALID,104,VALID,0,VALID,24.5106,VALID,55,VALID,0,
2014-02-09, 01:02:04,VALID,1006.45,VALID,0,VALID,104,VALID,0,VALID,24.532,VALID,55,VALID,0,
2014-02-09, 01:03:04,VALID,1006.47,VALID,0,VALID,104,VALID,0,VALID,24.5125,VALID,55,VALID,0,
2014-02-09, 01:04:04,VALID,1006.44,VALID,0,VALID,104,VALID,0,VALID,24.5125,VALID,56,VALID,0,
2014-02-09, 01:05:04,VALID,1006.44,VALID,0,VALID,104,VALID,0,VALID,24.532,VALID,54,VALID,0,
2014-02-09, 01:06:04,VALID,1006.44,VALID,0,VALID,104,VALID,0,VALID,24.5106,VALID,55,VALID,0,
2014-02-09, 01:07:04,VALID,1006.48,VALID,0,VALID,104,VALID,0,VALID,24.5106,VALID,56,VALID,0,
2014-02-09, 01:08:04,VALID,1006.45,VALID,0,VALID,104,VALID,0,VALID,24.5301,VALID,53,VALID,0,
2014-02-09, 01:09:04,VALID,1006.48,VALID,0,VALID,104,VALID,0,VALID,24.5301,VALID,54,VALID,0,
2014-02-09, 01:10:04,VALID,1006.46,VALID,0,VALID,104,VALID,0,VALID,24.5301,VALID,54,VALID,0,
2014-02-09, 01:11:04,VALID,1006.45,VALID,0,VALID,104,VALID,0,VALID,24.532,VALID,55,VALID,0,
2014-02-09, 01:12:04,VALID,1006.45,VALID,0,VALID,104,VALID,0,VALID,24.5106,VALID,54,VALID,0,
2014-02-09, 01:13:04,VALID,1006.43,VALID,0,VALID,104,VALID,0,VALID,24.4911,VALID,55,VALID,0,
2014-02-09, 01:14:04,VALID,1006.39,VALID,0,VALID,104,VALID,0,VALID,24.5125,VALID,55,VALID,0,
2014-02-09, 01:15:04,VALID,1006.4,VALID,0,VALID,104,VALID,0,VALID,24.4911,VALID,55,VALID,0,
2014-02-09, 01:16:04,VALID,1006.36,VALID,0,VALID,104,VALID,0,VALID,24.5125,VALID,55,VALID,0,
2014-02-09, 01:17:04,VALID,1006.38,VALID,0,VALID,104,VALID,0,VALID,24.4717,VALID,55,VALID,0,
2014-02-09, 01:18:04,VALID,1006.37,VALID,0,VALID,104,VALID,0,VALID,24.493,VALID,54,VALID,0,
2014-02-09, 01:19:04,VALID,1006.35,VALID,0,VALID,104,VALID,0,VALID,24.493,VALID,54,VALID,0,
2014-02-09, 01:20:04,VALID,1006.31,VALID,0,VALID,104,VALID,0,VALID,24.5125,VALID,54,VALID,0,
2014-02-09, 01:21:04,VALID,1006.31,VALID,0,VALID,104,VALID,0,VALID,24.5301,VALID,55,VALID,0,
2014-02-09, 01:22:04,VALID,1006.29,VALID,0,VALID,104,VALID,0,VALID,24.5301,VALID,55,VALID,0,
2014-02-09, 01:23:04,VALID,1006.26,VALID,0,VALID,104,VALID,0,VALID,24.5301,VALID,54,VALID,0,
2014-02-09, 01:24:04,VALID,1006.27,VALID,0,VALID,104,VALID,0,VALID,24.5106,VALID,54,VALID,0,
2014-02-09, 01:25:04,VALID,1006.26,VALID,0,VALID,104,VALID,0,VALID,24.4911,VALID,55,VALID,0,
2014-02-09, 01:26:04,VALID,1006.27,VALID,0,VALID,104,VALID,0,VALID,24.493,VALID,55,VALID,0,
2014-02-09, 01:27:04,VALID,1006.26,VALID,0,VALID,104,VALID,0,VALID,24.4717,VALID,55,VALID,0,
2014-02-09, 01:28:04,VALID,1006.26,VALID,0,VALID,104,VALID,0,VALID,24.5515,VALID,55,VALID,0,
2014-02-09, 01:29:04,VALID,1006.27,VALID,0,VALID,104,VALID,0,VALID,24.4345,VALID,55,VALID,0,
2014-02-09, 01:30:04,VALID,1006.27,VALID,0,VALID,104,VALID,0,VALID,24.4327,VALID,55,VALID,0,
2014-02-09, 01:31:04,VALID,1006.26,VALID,0,VALID,104,VALID,0,VALID,24.4132,VALID,55,VALID,0,
2014-02-09, 01:32:04,VALID,1006.27,VALID,0,VALID,104,VALID,0,VALID,24.4345,VALID,55,VALID,0,
2014-02-09, 01:33:04,VALID,1006.27,VALID,0,VALID,104,VALID,0,VALID,24.3937,VALID,55,VALID,0,
2014-02-09, 01:34:04,VALID,1006.26,VALID,0,VALID,104,VALID,0,VALID,24.3956,VALID,55,VALID,0,
2014-02-09, 01:35:04,VALID,1006.28,VALID,0,VALID,104,VALID,0,VALID,24.3761,VALID,55,VALID,0,
2014-02-09, 01:36:04,VALID,1006.24,VALID,0,VALID,104,VALID,0,VALID,24.3761,VALID,55,VALID,0,
2014-02-09, 01:37:04,VALID,1006.25,VALID,0,VALID,104,VALID,0,VALID,24.3547,VALID,55,VALID,0,
2014-02-09, 01:38:04,VALID,1006.21,VALID,0,VALID,104,VALID,0,VALID,24.3352,VALID,55,VALID,0,
2014-02-09, 01:39:04,VALID,1006.21,VALID,0,VALID,104,VALID,0,VALID,24.3761,VALID,55,VALID,0,
2014-02-09, 01:40:04,VALID,1006.22,VALID,0,VALID,104,VALID,0,VALID,24.3761,VALID,55,VALID,0,
2014-02-09, 01:41:04,VALID,1006.17,VALID,0,VALID,104,VALID,0,VALID,24.3352,VALID,55,VALID,0,
2014-02-09, 01:42:04,VALID,1006.17,VALID,0,VALID,104,VALID,0,VALID,24.3352,VALID,55,VALID,0,
2014-02-09, 01:43:04,VALID,1006.14,VALID,0,VALID,104,VALID,0,VALID,24.3566,VALID,55,VALID,0,
2014-02-09, 01:44:04,VALID,1006.15,VALID,0,VALID,104,VALID,0,VALID,24.3371,VALID,55,VALID,0,
2014-02-09, 01:45:04,VALID,1006.15,VALID,0,VALID,104,VALID,0,VALID,24.3158,VALID,55,VALID,0,
2014-02-09, 01:46:04,VALID,1006.13,VALID,0,VALID,104,VALID,0.112112,VALID,24.3158,VALID,55,VALID,0,
2014-02-09, 01:47:04,VALID,1006.17,VALID,0,VALID,104,VALID,0.112112,VALID,24.3352,VALID,55,VALID,0,
2014-02-09, 01:48:04,VALID,1006.14,VALID,0,VALID,104,VALID,0,VALID,24.3352,VALID,55,VALID,0,
2014-02-09, 01:49:04,VALID,1006.14,VALID,0,VALID,104,VALID,0,VALID,24.2963,VALID,55,VALID,0,
2014-02-09, 01:50:04,VALID,1006.16,VALID,0,VALID,104,VALID,0,VALID,24.2963,VALID,55,VALID,0,
2014-02-09, 01:51:04,VALID,1006.16,VALID,0,VALID,104,VALID,0,VALID,24.2963,VALID,55,VALID,0,
2014-02-09, 01:52:04,VALID,1006.14,VALID,0,VALID,104,VALID,0,VALID,24.3371,VALID,55,VALID,0,
2014-02-09, 01:53:04,VALID,1006.14,VALID,0,VALID,104,VALID,0.112112,VALID,24.2768,VALID,55,VALID,0,
2014-02-09, 01:54:04,VALID,1006.15,VALID,0,VALID,104,VALID,0,VALID,24.2963,VALID,55,VALID,0,
2014-02-09, 01:55:04,VALID,1006.14,VALID,0,VALID,104,VALID,0.112112,VALID,24.2981,VALID,55,VALID,0,
2014-02-09, 01:56:04,VALID,1006.14,VALID,0,VALID,104,VALID,0,VALID,24.2963,VALID,55,VALID,0,
2014-02-09, 01:57:04,VALID,1006.16,VALID,0,VALID,104,VALID,0,VALID,24.2786,VALID,55,VALID,0,
2014-02-09, 01:58:04,VALID,1006.12,VALID,0,VALID,104,VALID,0,VALID,24.2378,VALID,55,VALID,0,
2014-02-09, 01:59:04,VALID,1006.12,VALID,0,VALID,104,VALID,0,VALID,24.2786,VALID,55,VALID,0,
2014-02-09, 02:00:04,VALID,1006.09,VALID,0,VALID,104,VALID,0,VALID,24.2378,VALID,55,VALID,0,
2014-02-09, 02:01:04,VALID,1006.08,VALID,0,VALID,104,VALID,0,VALID,24.2786,VALID,55,VALID,0,
2014-02-09, 02:02:04,VALID,1006.08,VALID,0,VALID,104,VALID,0,VALID,24.2378,VALID,55,VALID,0,
2014-02-09, 02:03:04,VALID,1006.08,VALID,0,VALID,104,VALID,0,VALID,24.2591,VALID,55,VALID,0,
2014-02-09, 02:04:04,VALID,1006.1,VALID,0,VALID,104,VALID,0,VALID,24.2378,VALID,55,VALID,0,
2014-02-09, 02:05:04,VALID,1006.1,VALID,0,VALID,104,VALID,0.112112,VALID,24.2396,VALID,55,VALID,0,
2014-02-09, 02:06:04,VALID,1006.09,VALID,0,VALID,104,VALID,0,VALID,24.1988,VALID,55,VALID,0,
2014-02-09, 02:07:04,VALID,1006.09,VALID,0,VALID,104,VALID,0,VALID,24.2183,VALID,55,VALID,0,
2014-02-09, 02:08:04,VALID,1006.14,VALID,0,VALID,104,VALID,0,VALID,24.1988,VALID,55,VALID,0,
2014-02-09, 02:09:04,VALID,1006.14,VALID,0,VALID,104,VALID,0,VALID,24.1793,VALID,55,VALID,0,
2014-02-09, 02:10:04,VALID,1006.14,VALID,0,VALID,104,VALID,0,VALID,24.1793,VALID,55,VALID,0,
2014-02-09, 02:11:04,VALID,1006.17,VALID,0,VALID,104,VALID,0.112112,VALID,24.1988,VALID,55,VALID,0,
2014-02-09, 02:12:04,VALID,1006.15,VALID,0,VALID,104,VALID,0,VALID,24.1793,VALID,55,VALID,0,
2014-02-09, 02:13:04,VALID,1006.18,VALID,0,VALID,104,VALID,0.112112,VALID,24.2183,VALID,55,VALID,0,
2014-02-09, 02:14:04,VALID,1006.15,VALID,0,VALID,104,VALID,0.112112,VALID,24.1988,VALID,55,VALID,0,
2014-02-09, 02:15:04,VALID,1006.14,VALID,0,VALID,104,VALID,0,VALID,24.1793,VALID,55,VALID,0,
2014-02-09, 02:16:04,VALID,1006.15,VALID,0,VALID,104,VALID,0,VALID,24.2202,VALID,55,VALID,0,
2014-02-09, 02:17:04,VALID,1006.14,VALID,0,VALID,104,VALID,0.112112,VALID,24.1793,VALID,55,VALID,0,
2014-02-09, 02:18:04,VALID,1006.17,VALID,0,VALID,104,VALID,0.112112,VALID,24.1988,VALID,55,VALID,0,
2014-02-09, 02:19:04,VALID,1006.18,VALID,0,VALID,104,VALID,0,VALID,24.2202,VALID,55,VALID,0,
2014-02-09, 02:20:04,VALID,1006.16,VALID,0,VALID,104,VALID,0,VALID,24.2396,VALID,55,VALID,0,
2014-02-09, 02:21:04,VALID,1006.15,VALID,0,VALID,104,VALID,0,VALID,24.1988,VALID,55,VALID,0,
2014-02-09, 02:22:04,VALID,1006.16,VALID,0,VALID,104,VALID,0,VALID,24.1793,VALID,55,VALID,0,
2014-02-09, 02:23:04,VALID,1006.16,VALID,0,VALID,104,VALID,0,VALID,24.1793,VALID,55,VALID,0,
2014-02-09, 02:24:04,VALID,1006.13,VALID,0,VALID,104,VALID,0,VALID,24.1793,VALID,55,VALID,0,
2014-02-09, 02:25:04,VALID,1006.12,VALID,0,VALID,104,VALID,0,VALID,24.1812,VALID,55,VALID,0,
2014-02-09, 02:26:04,VALID,1006.09,VALID,0,VALID,104,VALID,0,VALID,24.1599,VALID,55,VALID,0,
2014-02-09, 02:27:04,VALID,1006.08,VALID,0,VALID,104,VALID,0,VALID,24.1599,VALID,55,VALID,0,
2014-02-09, 02:28:04,VALID,1006.07,VALID,0,VALID,104,VALID,0.112112,VALID,24.1599,VALID,55,VALID,0,
2014-02-09, 02:29:04,VALID,1006.02,VALID,0,VALID,104,VALID,0,VALID,24.1617,VALID,55,VALID,0,
2014-02-09, 02:30:04,VALID,1006.01,VALID,0,VALID,104,VALID,0,VALID,24.1599,VALID,55,VALID,0,
2014-02-09, 02:31:04,VALID,1006.03,VALID,0,VALID,104,VALID,0,VALID,24.1599,VALID,55,VALID,0,
2014-02-09, 02:32:04,VALID,1005.99,VALID,0,VALID,104,VALID,0.112112,VALID,24.1599,VALID,55,VALID,0,
2014-02-09, 02:33:04,VALID,1005.97,VALID,0,VALID,104,VALID,0,VALID,24.1599,VALID,55,VALID,0,
2014-02-09, 02:34:04,VALID,1005.97,VALID,0,VALID,104,VALID,0,VALID,24.1599,VALID,55,VALID,0,
2014-02-09, 02:35:04,VALID,1006.01,VALID,0,VALID,104,VALID,0,VALID,24.1599,VALID,55,VALID,0,
2014-02-09, 02:36:04,VALID,1006,VALID,0,VALID,104,VALID,0,VALID,24.1812,VALID,55,VALID,0,
2014-02-09, 02:37:04,VALID,1006,VALID,0,VALID,104,VALID,0,VALID,24.1599,VALID,55,VALID,0,
2014-02-09, 02:38:04,VALID,1006.02,VALID,0,VALID,104,VALID,0,VALID,24.1599,VALID,55,VALID,0,
2014-02-09, 02:39:04,VALID,1006.03,VALID,0,VALID,104,VALID,0,VALID,24.1793,VALID,55,VALID,0,
2014-02-09, 02:40:04,VALID,1006.05,VALID,0,VALID,104,VALID,0.112112,VALID,24.1988,VALID,55,VALID,0,
2014-02-09, 02:41:04,VALID,1006.04,VALID,0,VALID,104,VALID,0.112112,VALID,24.1988,VALID,55,VALID,0,
2014-02-09, 02:42:04,VALID,1006.05,VALID,0,VALID,104,VALID,0,VALID,24.2378,VALID,55,VALID,0,
2014-02-09, 02:43:04,VALID,1006.06,VALID,0,VALID,104,VALID,0,VALID,24.2183,VALID,55,VALID,0,
2014-02-09, 02:44:04,VALID,1006.07,VALID,0,VALID,104,VALID,0.112112,VALID,24.2183,VALID,55,VALID,0,
2014-02-09, 02:45:04,VALID,1006.08,VALID,0,VALID,104,VALID,0,VALID,24.2202,VALID,55,VALID,0,
2014-02-09, 02:46:04,VALID,1006.05,VALID,0,VALID,104,VALID,0.112112,VALID,24.1988,VALID,55,VALID,0,
2014-02-09, 02:47:04,VALID,1006.07,VALID,0,VALID,104,VALID,0,VALID,24.1988,VALID,55,VALID,0,
2014-02-09, 02:48:04,VALID,1006.09,VALID,0,VALID,104,VALID,0,VALID,24.2202,VALID,55,VALID,0,
2014-02-09, 02:49:04,VALID,1006.09,VALID,0,VALID,104,VALID,0,VALID,24.1988,VALID,55,VALID,0,
2014-02-09, 02:50:04,VALID,1006.08,VALID,0,VALID,104,VALID,0,VALID,24.2183,VALID,55,VALID,0,
2014-02-09, 02:51:04,VALID,1006.09,VALID,0,VALID,104,VALID,0,VALID,24.1988,VALID,55,VALID,0,
2014-02-09, 02:52:04,VALID,1006.14,VALID,0,VALID,104,VALID,0.112112,VALID,24.2202,VALID,55,VALID,0,
2014-02-09, 02:53:04,VALID,1006.15,VALID,0,VALID,104,VALID,0,VALID,24.2007,VALID,55,VALID,0,
2014-02-09, 02:54:04,VALID,1006.17,VALID,0,VALID,104,VALID,0,VALID,24.1793,VALID,54,VALID,0,
2014-02-09, 02:55:04,VALID,1006.15,VALID,0,VALID,104,VALID,0,VALID,24.1793,VALID,54,VALID,0,
2014-02-09, 02:56:04,VALID,1006.13,VALID,0,VALID,104,VALID,0.112112,VALID,24.1793,VALID,55,VALID,0,
2014-02-09, 02:57:04,VALID,1006.14,VALID,0,VALID,104,VALID,0,VALID,24.1404,VALID,55,VALID,0,
2014-02-09, 02:58:04,VALID,1006.17,VALID,0,VALID,104,VALID,0,VALID,24.2007,VALID,55,VALID,0,
2014-02-09, 02:59:04,VALID,1006.15,VALID,0,VALID,104,VALID,0.112112,VALID,24.1404,VALID,54,VALID,0,
2014-02-09, 03:00:04,VALID,1006.16,VALID,0,VALID,104,VALID,0.112112,VALID,24.1404,VALID,55,VALID,0,
2014-02-09, 03:01:04,VALID,1006.16,VALID,0,VALID,104,VALID,0,VALID,24.1404,VALID,54,VALID,0,
2014-02-09, 03:02:04,VALID,1006.13,VALID,0,VALID,104,VALID,0.112112,VALID,24.1404,VALID,55,VALID,0,
2014-02-09, 03:03:04,VALID,1006.15,VALID,0,VALID,104,VALID,0,VALID,24.1617,VALID,54,VALID,0,
2014-02-09, 03:04:04,VALID,1006.13,VALID,0,VALID,104,VALID,0,VALID,24.1599,VALID,55,VALID,0,
2014-02-09, 03:05:04,VALID,1006.18,VALID,0,VALID,104,VALID,0.112112,VALID,24.1599,VALID,55,VALID,0,
2014-02-09, 03:06:04,VALID,1006.19,VALID,0,VALID,104,VALID,0.112112,VALID,24.1599,VALID,55,VALID,0,
2014-02-09, 03:07:04,VALID,1006.17,VALID,0,VALID,104,VALID,0,VALID,24.1599,VALID,55,VALID,0,
2014-02-09, 03:08:04,VALID,1006.18,VALID,0,VALID,104,VALID,0,VALID,24.1599,VALID,55,VALID,0,
2014-02-09, 03:09:04,VALID,1006.18,VALID,0,VALID,104,VALID,0,VALID,24.1812,VALID,54,VALID,0,
2014-02-09, 03:10:04,VALID,1006.18,VALID,0,VALID,104,VALID,0.112112,VALID,24.1793,VALID,55,VALID,0,
2014-02-09, 03:11:04,VALID,1006.21,VALID,0,VALID,104,VALID,0,VALID,24.1599,VALID,56,VALID,0,
2014-02-09, 03:12:04,VALID,1006.18,VALID,0,VALID,104,VALID,0.112112,VALID,24.1793,VALID,54,VALID,0,
2014-02-09, 03:13:04,VALID,1006.18,VALID,0,VALID,104,VALID,0,VALID,24.1599,VALID,55,VALID,0,
2014-02-09, 03:14:04,VALID,1006.17,VALID,0,VALID,104,VALID,0.112112,VALID,24.1617,VALID,55,VALID,0,
2014-02-09, 03:15:04,VALID,1006.15,VALID,0,VALID,104,VALID,0.112112,VALID,24.1404,VALID,56,VALID,0,
2014-02-09, 03:16:04,VALID,1006.18,VALID,0,VALID,104,VALID,0,VALID,24.1599,VALID,54,VALID,0,
2014-02-09, 03:17:04,VALID,1006.15,VALID,0,VALID,104,VALID,0,VALID,24.1793,VALID,56,VALID,0,
2014-02-09, 03:18:04,VALID,1006.17,VALID,0,VALID,104,VALID,0,VALID,24.2007,VALID,54,VALID,0,
2014-02-09, 03:19:04,VALID,1006.18,VALID,0,VALID,104,VALID,0,VALID,24.1988,VALID,55,VALID,0,
2014-02-09, 03:20:04,VALID,1006.19,VALID,0,VALID,104,VALID,0,VALID,24.1793,VALID,56,VALID,0,
2014-02-09, 03:21:04,VALID,1006.19,VALID,0,VALID,104,VALID,0,VALID,24.2007,VALID,56,VALID,0,
2014-02-09, 03:22:04,VALID,1006.2,VALID,0,VALID,104,VALID,0,VALID,24.1599,VALID,54,VALID,0,
2014-02-09, 03:23:04,VALID,1006.21,VALID,0,VALID,104,VALID,0,VALID,24.1812,VALID,55,VALID,0,
2014-02-09, 03:24:04,VALID,1006.21,VALID,0,VALID,104,VALID,0,VALID,24.1599,VALID,54,VALID,0,
2014-02-09, 03:25:04,VALID,1006.2,VALID,0,VALID,104,VALID,0,VALID,24.1422,VALID,55,VALID,0,
2014-02-09, 03:26:04,VALID,1006.23,VALID,0,VALID,104,VALID,0,VALID,24.1404,VALID,54,VALID,0,
2014-02-09, 03:27:04,VALID,1006.22,VALID,0,VALID,104,VALID,0,VALID,24.1404,VALID,55,VALID,0,
2014-02-09, 03:28:04,VALID,1006.2,VALID,0,VALID,104,VALID,0,VALID,24.1209,VALID,56,VALID,0,
2014-02-09, 03:29:04,VALID,1006.21,VALID,0,VALID,104,VALID,0,VALID,24.1209,VALID,54,VALID,0,
2014-02-09, 03:30:04,VALID,1006.23,VALID,0,VALID,104,VALID,0,VALID,24.1227,VALID,54,VALID,0,
2014-02-09, 03:31:04,VALID,1006.23,VALID,0,VALID,104,VALID,0,VALID,24.1014,VALID,55,VALID,0,
2014-02-09, 03:32:04,VALID,1006.23,VALID,0,VALID,104,VALID,0,VALID,24.1014,VALID,55,VALID,0,
2014-02-09, 03:33:04,VALID,1006.21,VALID,0,VALID,104,VALID,0,VALID,24.1014,VALID,54,VALID,0,
2014-02-09, 03:34:04,VALID,1006.18,VALID,0,VALID,104,VALID,0,VALID,24.0819,VALID,55,VALID,0,
2014-02-09, 03:35:04,VALID,1006.17,VALID,0,VALID,104,VALID,0,VALID,24.0837,VALID,54,VALID,0,
2014-02-09, 03:36:04,VALID,1006.14,VALID,0,VALID,104,VALID,0.112112,VALID,24.0819,VALID,55,VALID,0,
2014-02-09, 03:37:04,VALID,1006.13,VALID,0,VALID,104,VALID,0,VALID,24.0235,VALID,56,VALID,0,
2014-02-09, 03:38:04,VALID,1006.12,VALID,0,VALID,104,VALID,0,VALID,24.0429,VALID,55,VALID,0,
2014-02-09, 03:39:04,VALID,1006.09,VALID,0,VALID,104,VALID,0,VALID,24.0429,VALID,55,VALID,0,
2014-02-09, 03:40:04,VALID,1006.08,VALID,0,VALID,104,VALID,0,VALID,24.0429,VALID,55,VALID,0,
2014-02-09, 03:41:04,VALID,1006.07,VALID,0,VALID,104,VALID,0,VALID,24.0235,VALID,55,VALID,0,
2014-02-09, 03:42:04,VALID,1006.07,VALID,0,VALID,104,VALID,0.112112,VALID,24.0429,VALID,55,VALID,0,
2014-02-09, 03:43:04,VALID,1006.08,VALID,0,VALID,104,VALID,0,VALID,24.0235,VALID,55,VALID,0,
2014-02-09, 03:44:04,VALID,1006.06,VALID,0,VALID,104,VALID,0,VALID,24.0235,VALID,55,VALID,0,
2014-02-09, 03:45:04,VALID,1006.05,VALID,0,VALID,104,VALID,0,VALID,24.0235,VALID,55,VALID,0,
2014-02-09, 03:46:04,VALID,1006.05,VALID,0,VALID,104,VALID,0,VALID,24.0235,VALID,55,VALID,0,
2014-02-09, 03:47:04,VALID,1006.06,VALID,0,VALID,104,VALID,0,VALID,24.0235,VALID,55,VALID,0,
2014-02-09, 03:48:04,VALID,1006.04,VALID,0,VALID,104,VALID,0.112112,VALID,24.0235,VALID,55,VALID,0,
2014-02-09, 03:49:04,VALID,1006.08,VALID,0,VALID,104,VALID,0,VALID,24.0448,VALID,55,VALID,0,
2014-02-09, 03:50:04,VALID,1006.08,VALID,0,VALID,104,VALID,0,VALID,24.0058,VALID,55,VALID,0,
2014-02-09, 03:51:04,VALID,1006.08,VALID,0,VALID,104,VALID,0,VALID,23.9845,VALID,55,VALID,0,
2014-02-09, 03:52:04,VALID,1006.07,VALID,0,VALID,104,VALID,0,VALID,23.9845,VALID,55,VALID,0,
2014-02-09, 03:53:04,VALID,1006.06,VALID,0,VALID,104,VALID,0,VALID,23.9845,VALID,55,VALID,0,
2014-02-09, 03:54:04,VALID,1006.05,VALID,0,VALID,104,VALID,0,VALID,23.9845,VALID,55,VALID,0,
2014-02-09, 03:55:04,VALID,1006.04,VALID,0,VALID,104,VALID,0,VALID,23.9845,VALID,55,VALID,0,
2014-02-09, 03:56:04,VALID,1006.08,VALID,0,VALID,104,VALID,0,VALID,23.965,VALID,54,VALID,0,
2014-02-09, 03:57:04,VALID,1006.06,VALID,0,VALID,104,VALID,0,VALID,23.9863,VALID,54,VALID,0,
2014-02-09, 03:58:04,VALID,1006.06,VALID,0,VALID,104,VALID,0,VALID,23.965,VALID,55,VALID,0,
2014-02-09, 03:59:04,VALID,1006.02,VALID,0,VALID,104,VALID,0,VALID,23.9668,VALID,56,VALID,0,
2014-02-09, 04:00:04,VALID,1006.06,VALID,0,VALID,104,VALID,0,VALID,23.965,VALID,55,VALID,0,
2014-02-09, 04:01:04,VALID,1006.04,VALID,0,VALID,104,VALID,0,VALID,23.9863,VALID,54,VALID,0,
2014-02-09, 04:02:04,VALID,1006.04,VALID,0,VALID,104,VALID,0.112112,VALID,23.9632,VALID,55,VALID,0,
2014-02-09, 04:03:04,VALID,1006.03,VALID,0,VALID,104,VALID,0.112112,VALID,23.9632,VALID,55,VALID,0,
2014-02-09, 04:04:04,VALID,1006.04,VALID,0,VALID,104,VALID,0.112112,VALID,23.9632,VALID,55,VALID,0,
2014-02-09, 04:05:04,VALID,1006.02,VALID,0,VALID,104,VALID,0.112112,VALID,23.9632,VALID,55,VALID,0,
2014-02-09, 04:06:04,VALID,1006.04,VALID,0,VALID,104,VALID,0.112112,VALID,23.9632,VALID,55,VALID,0,
2014-02-09, 04:07:04,VALID,1006.05,VALID,0,VALID,104,VALID,0.224224,VALID,23.9632,VALID,55,VALID,0,
2014-02-09, 04:08:04,VALID,1006.06,VALID,0,VALID,104,VALID,0.112112,VALID,23.9827,VALID,55,VALID,0,